Huntington, WV

5:27 PM EDT on May 23, 2017 (GMT -0400)
Tri-State / Ferguson

Weather History for KHTS - September, 2013

Change the Weather History Date:

Wednesday, September 18, 2013

  Actual Average Record
Temperature  
Mean Temperature 61 °F 67 °F  
Max Temperature 67 °F 78 °F 93 °F (1953)
Min Temperature 55 °F 56 °F 38 °F (1903)
Degree Days  
Heating Degree Days 4 2  
Month to date heating degree days 16 13  
Since 1 July heating degree days 20 15  
Cooling Degree Days 0 4  
Month to date cooling degree days 111 103  
Year to date cooling degree days 1143 1080  
Growing Degree Days 10 (Base 50)    
Moisture  
Dew Point 59 °F    
Average Humidity 86    
Maximum Humidity 93    
Minimum Humidity 78    
Precipitation  
Precipitation 0.01 in 0.08 in 1.64 in (2012)
Month to date precipitation 0.55 1.74  
Year to date precipitation 32.97 31.99  
Snow  
Snow 0.00 in - - ()
Month to date snowfall 0.0  
Since 1 September snowfall 0.0  
Snow Depth 0.00 in    
Sea Level Pressure  
Sea Level Pressure 30.16 in    
Wind  
Wind Speed 3 mph (SSE)    
Max Wind Speed 12 mph    
Max Gust Speed 15 mph    
Visibility 7 miles    
Events Rain    
T = Trace of Precipitation, MM = Missing Value Source: NWS Daily Summary

Daily Weather History Graph

Daily Weather History Graph

Search for Another Location

Airport or City:

Trip Planner

Search our weather history database for the weather conditions in past years. The results will help you decide how hot, cold, wet, or windy it might be!

Date:

Astronomy

Sep. 18, 2013 Rise Set
Actual Time 7:14 AM EDT 7:33 PM EDT
Civil Twilight 6:48 AM EDT 7:59 PM EDT
Nautical Twilight 6:17 AM EDT 8:30 PM EDT
Astronomical Twilight 5:45 AM EDT 9:02 PM EDT
Moon 6:55 PM EDT (9/18) 6:16 AM EDT (9/18)
Length of Visible Light 13h 11m
Length of Day
12h 18m
Waxing Gibbous, 99% of the Moon is Illuminated
Sep 18
Waxing Gibbous
Sep 19
Full
Sep 26
Last Quarter
Oct 4
New
Oct 11
First Quarter

Hourly Weather History & Observations

Time (EDT) Temp. Dew Point Humidity Pressure Visibility Wind Dir Wind Speed Gust Speed Precip Events Conditions
12:51 AM 60.1 °F 54.0 °F 80% 30.17 in 10.0 mi Calm Calm - N/A   Clear
1:51 AM 59.0 °F 55.0 °F 87% 30.17 in 10.0 mi East 3.5 mph - N/A   Scattered Clouds
2:51 AM 57.9 °F 54.0 °F 87% 30.17 in 10.0 mi East 3.5 mph - N/A   Partly Cloudy
3:51 AM 57.0 °F 54.0 °F 89% 30.15 in 10.0 mi ESE 4.6 mph - N/A   Scattered Clouds
4:51 AM 55.9 °F 54.0 °F 93% 30.15 in 10.0 mi East 3.5 mph - N/A   Scattered Clouds
5:51 AM 55.9 °F 54.0 °F 93% 30.16 in 8.0 mi East 3.5 mph - N/A   Clear
6:51 AM 55.9 °F 54.0 °F 93% 30.17 in 10.0 mi Calm Calm - N/A   Clear
7:51 AM 55.9 °F 54.0 °F 93% 30.18 in 7.0 mi Calm Calm - N/A   Scattered Clouds
8:51 AM 59.0 °F 55.9 °F 90% 30.18 in 10.0 mi Calm Calm - N/A   Overcast
9:51 AM 64.0 °F 57.9 °F 80% 30.19 in 10.0 mi South 3.5 mph - N/A   Mostly Cloudy
10:51 AM 62.1 °F 57.9 °F 86% 30.20 in 6.0 mi SSW 6.9 mph - 0.00 in Rain Light Rain
11:18 AM 62.6 °F 59.0 °F 88% 30.21 in 6.0 mi South 5.8 mph - N/A   Overcast
11:44 AM 62.6 °F 59.0 °F 88% 30.20 in 2.0 mi South 3.5 mph - 0.01 in Rain Light Rain
11:48 AM 62.6 °F 60.8 °F 94% 30.20 in 3.0 mi South 3.5 mph - 0.01 in Rain Light Rain
11:51 AM 62.1 °F 60.1 °F 93% 30.19 in 2.5 mi South 4.6 mph - 0.01 in Rain Light Rain
12:51 PM 63.0 °F 61.0 °F 93% 30.19 in 3.0 mi South 4.6 mph - 0.00 in Rain Light Rain
1:00 PM 62.6 °F 60.8 °F 94% 30.19 in 3.0 mi SSW 5.8 mph - 0.00 in Rain Light Rain
1:51 PM 64.0 °F 61.0 °F 90% 30.18 in 6.0 mi SSW 5.8 mph - 0.00 in   Overcast
2:51 PM 64.9 °F 61.0 °F 87% 30.16 in 6.0 mi SSW 4.6 mph - 0.00 in   Overcast
3:51 PM 64.9 °F 62.1 °F 90% 30.15 in 6.0 mi South 5.8 mph - N/A   Overcast
4:51 PM 66.0 °F 62.1 °F 87% 30.14 in 6.0 mi SSW 6.9 mph - N/A   Overcast
5:51 PM 64.9 °F 62.1 °F 90% 30.13 in 10.0 mi South 4.6 mph - N/A   Overcast
6:51 PM 64.9 °F 62.1 °F 90% 30.12 in 8.0 mi South 5.8 mph - N/A   Overcast
7:51 PM 64.9 °F 62.1 °F 90% 30.12 in 9.0 mi Calm Calm - N/A   Overcast
8:51 PM 64.9 °F 62.1 °F 90% 30.13 in 9.0 mi South 3.5 mph - N/A   Overcast
9:51 PM 64.9 °F 62.1 °F 90% 30.14 in 7.0 mi SSE 3.5 mph - N/A   Overcast
10:23 PM 64.4 °F 62.6 °F 94% 30.15 in 7.0 mi Calm Calm - N/A   Overcast
10:51 PM 64.0 °F 62.1 °F 93% 30.13 in 6.0 mi Calm Calm - N/A   Overcast
11:51 PM 64.0 °F 62.1 °F 93% 30.13 in 4.0 mi Calm Calm - N/A   Overcast